ANA1277 RJFF-RJCC

Flight info

Callsign ANA1277
Flight time 1h 52m
Altitude 35000
Route MARCO Y141 SAMON Y14 GOLDO Y19 MRE Y13 SIRAO Y139 NAVER
Aircraft B738/M-SDE2E3FGHIRWXY/LB1

Departure

Time 2026-02-18 06:44
Airport Fukuoka Airport (RJFF)

Arrival

Time 2026-02-18 08:37
Airport New Chitose Airport (RJCC)
Time Latitude Longitude Altitude Speed Heading
2026-02-18 06:29 33.59625 130.44779 24 ft 0 kts 61°
2026-02-18 06:30 33.59624 130.44776 28 ft 1 kts 61°
2026-02-18 06:31 33.59605 130.44737 30 ft 3 kts 71°
2026-02-18 06:31 33.59603 130.44717 29 ft 3 kts 115°
2026-02-18 06:31 33.59614 130.44699 29 ft 2 kts 147°
2026-02-18 06:31 33.59624 130.44692 26 ft 2 kts 151°
2026-02-18 06:32 33.59638 130.44683 28 ft 1 kts 151°
2026-02-18 06:32 33.59640 130.44682 28 ft 0 kts 151°
2026-02-18 06:35 33.59639 130.44682 28 ft 1 kts 151°
2026-02-18 06:36 33.59626 130.44691 28 ft 4 kts 151°
2026-02-18 06:36 33.59596 130.44711 29 ft 6 kts 151°
2026-02-18 06:36 33.59548 130.44743 26 ft 10 kts 151°
2026-02-18 06:36 33.59475 130.44792 26 ft 14 kts 150°
2026-02-18 06:37 33.59393 130.44844 27 ft 10 kts 159°
2026-02-18 06:37 33.59318 130.44851 28 ft 12 kts 180°
2026-02-18 06:37 33.59229 130.44864 26 ft 13 kts 157°
2026-02-18 06:37 33.59150 130.44915 24 ft 13 kts 150°
2026-02-18 06:38 33.59074 130.44967 27 ft 12 kts 150°
2026-02-18 06:38 33.59000 130.45018 28 ft 12 kts 150°
2026-02-18 06:38 33.58927 130.45067 30 ft 12 kts 151°
2026-02-18 06:39 33.58789 130.45162 31 ft 11 kts 150°
2026-02-18 06:39 33.58722 130.45208 34 ft 11 kts 150°
2026-02-18 06:39 33.58657 130.45252 33 ft 11 kts 150°
2026-02-18 06:39 33.58594 130.45295 33 ft 10 kts 150°
2026-02-18 06:40 33.58526 130.45341 33 ft 12 kts 150°
2026-02-18 06:40 33.58446 130.45396 32 ft 14 kts 150°
2026-02-18 06:40 33.58347 130.45464 33 ft 18 kts 150°
2026-02-18 06:40 33.58232 130.45543 34 ft 19 kts 150°
2026-02-18 06:41 33.58119 130.45621 36 ft 19 kts 150°
2026-02-18 06:41 33.58007 130.45696 38 ft 18 kts 150°
2026-02-18 06:41 33.57900 130.45770 43 ft 17 kts 150°
2026-02-18 06:41 33.57803 130.45836 43 ft 14 kts 151°
2026-02-18 06:42 33.57720 130.45892 43 ft 13 kts 152°
2026-02-18 06:42 33.57642 130.45890 44 ft 10 kts 220°
2026-02-18 06:42 33.57623 130.45859 45 ft 0 kts 239°
2026-02-18 06:43 33.57620 130.45854 45 ft 2 kts 239°
2026-02-18 06:43 33.57602 130.45813 44 ft 9 kts 247°
2026-02-18 06:43 33.57629 130.45727 43 ft 15 kts 324°
2026-02-18 06:44 33.57816 130.45595 43 ft 66 kts 330°
2026-02-18 06:44 33.58450 130.45146 58 ft 140 kts 327°
2026-02-18 06:44 33.59401 130.44511 611 ft 164 kts 330°
2026-02-18 06:44 33.60393 130.43897 1886 ft 154 kts 330°
2026-02-18 06:45 33.61390 130.43237 2632 ft 177 kts 326°
2026-02-18 06:45 33.62535 130.42425 2985 ft 205 kts 327°
2026-02-18 06:45 33.63868 130.41541 3342 ft 235 kts 336°
2026-02-18 06:45 33.65550 130.41392 4128 ft 254 kts
2026-02-18 06:46 33.67075 130.42470 5175 ft 264 kts 45°
2026-02-18 06:46 33.68094 130.44356 6050 ft 274 kts 56°
2026-02-18 06:46 33.68891 130.46477 6884 ft 287 kts 74°
2026-02-18 06:47 33.67801 130.51113 8411 ft 310 kts 137°
2026-02-18 06:47 33.66034 130.52571 9187 ft 311 kts 154°
2026-02-18 06:47 33.64100 130.53825 9904 ft 319 kts 158°
2026-02-18 06:47 33.62043 130.54915 10445 ft 332 kts 162°
2026-02-18 06:48 33.59816 130.55975 10649 ft 357 kts 163°
2026-02-18 06:48 33.57429 130.57103 10830 ft 381 kts 162°
2026-02-18 06:48 33.54904 130.58328 11183 ft 398 kts 162°
2026-02-18 06:48 33.52325 130.59611 11828 ft 405 kts 161°
2026-02-18 06:49 33.49716 130.60924 12559 ft 408 kts 161°
2026-02-18 06:49 33.47087 130.62249 13244 ft 413 kts 161°
2026-02-18 06:49 33.44463 130.63718 13892 ft 423 kts 151°
2026-02-18 06:49 33.42243 130.66081 14504 ft 432 kts 131°
2026-02-18 06:50 33.40360 130.68892 15213 ft 434 kts 129°
2026-02-18 06:50 33.38483 130.71741 15829 ft 438 kts 130°
2026-02-18 06:50 33.36568 130.74592 16433 ft 442 kts 131°
2026-02-18 06:51 33.32806 130.80466 17643 ft 451 kts 117°
2026-02-18 06:51 33.31804 130.84021 18249 ft 454 kts 99°
2026-02-18 06:51 33.31554 130.87776 18793 ft 453 kts 84°
2026-02-18 06:51 33.32081 130.91463 19243 ft 450 kts 68°
2026-02-18 06:52 33.33125 130.94985 19819 ft 449 kts 64°
2026-02-18 06:52 33.34223 130.98487 20344 ft 452 kts 65°
2026-02-18 06:52 33.35286 131.02044 20840 ft 456 kts 66°
2026-02-18 06:52 33.36241 131.05686 21317 ft 461 kts 69°
2026-02-18 06:53 33.37107 131.09395 21815 ft 464 kts 70°
2026-02-18 06:53 33.37980 131.13121 22291 ft 467 kts 68°
2026-02-18 06:53 33.39318 131.16611 22694 ft 457 kts 49°
2026-02-18 06:53 33.41299 131.19537 23226 ft 452 kts 42°
2026-02-18 06:54 33.43368 131.22381 23679 ft 454 kts 42°
2026-02-18 06:54 33.45452 131.25244 24016 ft 458 kts 42°
2026-02-18 06:54 33.47540 131.28139 24387 ft 460 kts 43°
2026-02-18 06:55 33.51645 131.33915 25102 ft 465 kts 43°
2026-02-18 06:55 33.53737 131.36884 25442 ft 468 kts 43°
2026-02-18 06:55 33.55808 131.39831 25778 ft 470 kts 43°
2026-02-18 06:55 33.57917 131.42835 26122 ft 472 kts 43°
2026-02-18 06:56 33.60062 131.45891 26451 ft 474 kts 43°
2026-02-18 06:56 33.62162 131.48885 26772 ft 476 kts 43°
2026-02-18 06:56 33.64297 131.51932 27086 ft 479 kts 43°
2026-02-18 06:56 33.66447 131.55002 27391 ft 481 kts 43°
2026-02-18 06:57 33.68602 131.58080 27659 ft 483 kts 43°
2026-02-18 06:57 33.70769 131.61177 27934 ft 485 kts 43°
2026-02-18 06:57 33.72943 131.64287 28207 ft 488 kts 43°
2026-02-18 06:57 33.75128 131.67415 28521 ft 489 kts 43°
2026-02-18 06:58 33.77310 131.70544 28920 ft 488 kts 44°
2026-02-18 06:58 33.79484 131.73665 29364 ft 486 kts 44°
2026-02-18 06:58 33.81653 131.76783 29772 ft 486 kts 43°
2026-02-18 06:59 33.85989 131.83018 30429 ft 486 kts 43°
2026-02-18 06:59 33.88162 131.86145 30644 ft 488 kts 43°
2026-02-18 06:59 33.90347 131.89292 30854 ft 490 kts 43°
2026-02-18 06:59 33.92534 131.92445 31100 ft 492 kts 43°
2026-02-18 07:00 33.94724 131.95609 31338 ft 493 kts 43°
2026-02-18 07:00 33.96922 131.98785 31568 ft 494 kts 43°
2026-02-18 07:00 33.99130 132.01979 31788 ft 496 kts 43°
2026-02-18 07:00 34.01337 132.05176 31997 ft 497 kts 43°
2026-02-18 07:01 34.03547 132.08380 32229 ft 498 kts 43°
2026-02-18 07:01 34.05021 132.10518 32393 ft 499 kts 43°
2026-02-18 07:01 34.07240 132.13727 32646 ft 499 kts 42°
2026-02-18 07:01 34.09637 132.16714 32875 ft 492 kts 34°
2026-02-18 07:02 34.12205 132.19437 33148 ft 491 kts 33°
2026-02-18 07:02 34.14808 132.22109 33366 ft 492 kts 32°
2026-02-18 07:02 34.17423 132.24788 33589 ft 493 kts 33°
2026-02-18 07:03 34.22629 132.30209 34071 ft 495 kts 33°
2026-02-18 07:03 34.25225 132.32951 34265 ft 496 kts 33°
2026-02-18 07:03 34.27827 132.35710 34426 ft 498 kts 33°
2026-02-18 07:03 34.30431 132.38473 34599 ft 499 kts 33°
2026-02-18 07:04 34.33038 132.41237 34798 ft 499 kts 33°
2026-02-18 07:04 34.35655 132.44008 34967 ft 500 kts 33°
2026-02-18 07:04 34.38278 132.46783 35075 ft 501 kts 33°
2026-02-18 07:04 34.40905 132.49564 35093 ft 502 kts 33°
2026-02-18 07:05 34.46159 132.55137 35091 ft 501 kts 33°
2026-02-18 07:05 34.51396 132.60706 35089 ft 501 kts 33°
2026-02-18 07:06 34.56586 132.66233 35085 ft 499 kts 33°
2026-02-18 07:07 34.64421 132.74591 35104 ft 500 kts 33°
2026-02-18 07:07 34.69663 132.80195 35090 ft 502 kts 33°
2026-02-18 07:08 34.74904 132.85812 35100 ft 503 kts 33°
2026-02-18 07:08 34.80149 132.91443 35109 ft 503 kts 33°
2026-02-18 07:09 34.85395 132.97084 35106 ft 503 kts 33°
2026-02-18 07:09 34.90635 133.02727 35098 ft 503 kts 33°
2026-02-18 07:10 34.95882 133.08388 35089 ft 504 kts 33°
2026-02-18 07:10 35.01119 133.14052 35099 ft 503 kts 33°
2026-02-18 07:11 35.08962 133.22554 35108 ft 503 kts 33°
2026-02-18 07:11 35.14193 133.28236 35109 ft 504 kts 33°
2026-02-18 07:12 35.19427 133.33932 35104 ft 504 kts 33°
2026-02-18 07:12 35.24654 133.39632 35117 ft 503 kts 33°
2026-02-18 07:13 35.29881 133.45339 35108 ft 504 kts 33°
2026-02-18 07:13 35.35075 133.51024 35113 ft 504 kts 33°
2026-02-18 07:14 35.40309 133.56761 35110 ft 505 kts 33°
2026-02-18 07:15 35.48191 133.65422 35115 ft 504 kts 33°
2026-02-18 07:15 35.53407 133.71167 35112 ft 504 kts 33°
2026-02-18 07:16 35.58617 133.76915 35104 ft 503 kts 33°
2026-02-18 07:16 35.63787 133.82629 35089 ft 502 kts 33°
2026-02-18 07:17 35.68976 133.88374 35088 ft 502 kts 33°
2026-02-18 07:17 35.74159 133.94124 35086 ft 502 kts 33°
2026-02-18 07:18 35.79342 133.99883 35090 ft 502 kts 33°
2026-02-18 07:18 35.84522 134.05649 35097 ft 502 kts 33°
2026-02-18 07:19 35.92288 134.14316 35092 ft 502 kts 33°
2026-02-18 07:19 35.97464 134.20105 35087 ft 502 kts 33°
2026-02-18 07:20 36.02641 134.25907 35084 ft 503 kts 33°
2026-02-18 07:20 36.07819 134.31720 35085 ft 503 kts 33°
2026-02-18 07:21 36.13000 134.37549 35084 ft 504 kts 33°
2026-02-18 07:21 36.18181 134.43388 35080 ft 504 kts 33°
2026-02-18 07:22 36.23333 134.49304 35073 ft 510 kts 38°
2026-02-18 07:23 36.29467 134.60364 35066 ft 525 kts 53°
2026-02-18 07:23 36.35049 134.72061 35055 ft 525 kts 52°
2026-02-18 07:24 36.38820 134.79809 35057 ft 524 kts 52°
2026-02-18 07:24 36.42582 134.87481 35056 ft 524 kts 52°
2026-02-18 07:25 36.46370 134.95217 35048 ft 524 kts 52°
2026-02-18 07:25 36.50154 135.02973 35049 ft 525 kts 52°
2026-02-18 07:26 36.53932 135.10738 35048 ft 525 kts 52°
2026-02-18 07:27 36.59601 135.22428 35046 ft 527 kts 52°
2026-02-18 07:27 36.63380 135.30243 35039 ft 527 kts 52°
2026-02-18 07:28 36.67159 135.38076 35031 ft 528 kts 52°
2026-02-18 07:28 36.70942 135.45936 35029 ft 529 kts 52°
2026-02-18 07:29 36.74722 135.53809 35035 ft 529 kts 52°
2026-02-18 07:29 36.78498 135.61691 35026 ft 530 kts 53°
2026-02-18 07:30 36.82279 135.69603 35019 ft 530 kts 53°
2026-02-18 07:30 36.86053 135.77517 35018 ft 531 kts 53°
2026-02-18 07:31 36.91705 135.89409 35018 ft 531 kts 53°
2026-02-18 07:31 36.95468 135.97350 35010 ft 531 kts 53°
2026-02-18 07:32 36.99226 136.05296 35008 ft 531 kts 53°
2026-02-18 07:32 37.02981 136.13257 35007 ft 531 kts 53°
2026-02-18 07:33 37.06727 136.21218 34996 ft 531 kts 53°
2026-02-18 07:33 37.10471 136.29195 34991 ft 531 kts 53°
2026-02-18 07:34 37.14207 136.37175 34995 ft 531 kts 53°
2026-02-18 07:34 37.17941 136.45170 34988 ft 531 kts 53°
2026-02-18 07:35 37.21670 136.53171 34996 ft 532 kts 53°
2026-02-18 07:35 37.25396 136.61188 34971 ft 532 kts 54°
2026-02-18 07:36 37.29119 136.69217 34963 ft 532 kts 54°
2026-02-18 07:37 37.34696 136.81282 34949 ft 533 kts 54°
2026-02-18 07:37 37.38415 136.89353 34944 ft 533 kts 54°
2026-02-18 07:38 37.42123 136.97420 34942 ft 533 kts 54°
2026-02-18 07:38 37.45805 137.05450 34948 ft 533 kts 54°
2026-02-18 07:39 37.49504 137.13535 34955 ft 533 kts 54°
2026-02-18 07:39 37.53196 137.21626 34945 ft 533 kts 55°
2026-02-18 07:40 37.56883 137.29726 34946 ft 533 kts 55°
2026-02-18 07:40 37.62401 137.41888 34940 ft 532 kts 55°
2026-02-18 07:41 37.66073 137.50007 34938 ft 532 kts 55°
2026-02-18 07:41 37.69736 137.58125 34932 ft 532 kts 56°
2026-02-18 07:42 37.73398 137.66261 34935 ft 535 kts 56°
2026-02-18 07:42 37.77095 137.74491 34929 ft 540 kts 56°
2026-02-18 07:43 37.80795 137.82758 34920 ft 541 kts 56°
2026-02-18 07:43 37.84495 137.91045 34912 ft 541 kts 56°
2026-02-18 07:44 37.88187 137.99334 34910 ft 540 kts 56°
2026-02-18 07:45 37.93687 138.11718 34906 ft 540 kts 57°
2026-02-18 07:45 37.97360 138.20018 34907 ft 540 kts 57°
2026-02-18 07:46 38.01023 138.28318 34898 ft 540 kts 57°
2026-02-18 07:46 38.04788 138.36550 34898 ft 536 kts 50°
2026-02-18 07:47 38.09723 138.43444 34905 ft 522 kts 34°
2026-02-18 07:47 38.15619 138.48601 34904 ft 513 kts 25°
2026-02-18 07:48 38.21662 138.53419 34896 ft 512 kts 25°
2026-02-18 07:48 38.29665 138.59905 34882 ft 512 kts 25°
2026-02-18 07:49 38.35648 138.64829 34885 ft 512 kts 26°
2026-02-18 07:49 38.41620 138.69766 34887 ft 511 kts 26°
2026-02-18 07:50 38.47580 138.74699 34884 ft 510 kts 26°
2026-02-18 07:50 38.53533 138.79631 34883 ft 510 kts 26°
2026-02-18 07:51 38.59480 138.84568 34884 ft 510 kts 26°
2026-02-18 07:51 38.65424 138.89512 34880 ft 509 kts 26°
2026-02-18 07:52 38.71361 138.94461 34872 ft 509 kts 26°
2026-02-18 07:53 38.80268 139.01904 34862 ft 510 kts 26°
2026-02-18 07:53 38.86205 139.06878 34869 ft 510 kts 26°
2026-02-18 07:54 38.92147 139.11866 34861 ft 510 kts 26°
2026-02-18 07:54 38.98090 139.16865 34857 ft 511 kts 26°
2026-02-18 07:55 39.04037 139.21878 34860 ft 511 kts 27°
2026-02-18 07:55 39.09987 139.26903 34862 ft 512 kts 27°
2026-02-18 07:56 39.15937 139.31939 34861 ft 512 kts 27°
2026-02-18 07:56 39.24873 139.39522 34847 ft 512 kts 27°
2026-02-18 07:57 39.30826 139.44587 34844 ft 513 kts 27°
2026-02-18 07:57 39.36776 139.49659 34843 ft 513 kts 27°
2026-02-18 07:58 39.42728 139.54745 34841 ft 513 kts 27°
2026-02-18 07:58 39.48681 139.59841 34840 ft 513 kts 27°
2026-02-18 07:59 39.54628 139.64943 34833 ft 513 kts 27°
2026-02-18 07:59 39.60572 139.70053 34830 ft 512 kts 28°
2026-02-18 08:00 39.66512 139.75170 34825 ft 512 kts 28°
2026-02-18 08:01 39.75413 139.82859 34822 ft 512 kts 28°
2026-02-18 08:01 39.81343 139.87994 34820 ft 512 kts 28°
2026-02-18 08:02 39.87262 139.93171 34819 ft 513 kts 28°
2026-02-18 08:02 39.93133 139.98342 34817 ft 513 kts 29°
2026-02-18 08:03 39.99082 140.03591 34819 ft 513 kts 29°
2026-02-18 08:03 40.04991 140.08811 34815 ft 513 kts 29°
2026-02-18 08:04 40.10857 140.14001 34797 ft 513 kts 29°
2026-02-18 08:04 40.19707 140.21854 34809 ft 512 kts 29°
2026-02-18 08:05 40.25601 140.27097 34806 ft 512 kts 30°
2026-02-18 08:05 40.31485 140.32343 34809 ft 511 kts 30°
2026-02-18 08:06 40.37358 140.37591 34792 ft 511 kts 30°
2026-02-18 08:06 40.43218 140.42838 34804 ft 510 kts 30°
2026-02-18 08:07 40.49062 140.48083 34781 ft 508 kts 30°
2026-02-18 08:07 40.54888 140.53322 34767 ft 507 kts 30°
2026-02-18 08:08 40.60702 140.58562 34766 ft 506 kts 30°
2026-02-18 08:09 40.69410 140.66430 34754 ft 506 kts 31°
2026-02-18 08:09 40.75357 140.71324 34738 ft 501 kts 20°
2026-02-18 08:10 40.81840 140.74520 34749 ft 496 kts 14°
2026-02-18 08:10 40.88347 140.77606 34759 ft 498 kts 15°
2026-02-18 08:11 40.94838 140.80831 34771 ft 499 kts 16°
2026-02-18 08:11 41.01305 140.84043 34776 ft 499 kts 16°
2026-02-18 08:12 41.07812 140.87276 34784 ft 500 kts 16°
2026-02-18 08:12 41.17595 140.92147 34786 ft 501 kts 16°
2026-02-18 08:13 41.24122 140.95407 34785 ft 501 kts 16°
2026-02-18 08:13 41.30654 140.98675 34794 ft 501 kts 16°
2026-02-18 08:14 41.37196 141.01894 34784 ft 501 kts 16°
2026-02-18 08:14 41.40477 141.03491 34648 ft 504 kts 16°
2026-02-18 08:14 41.43787 141.05106 34034 ft 507 kts 17°
2026-02-18 08:15 41.47091 141.06730 33289 ft 506 kts 17°
2026-02-18 08:15 41.50389 141.08360 32499 ft 505 kts 17°
2026-02-18 08:15 41.53683 141.09993 31735 ft 505 kts 16°
2026-02-18 08:15 41.56979 141.11628 30947 ft 506 kts 16°
2026-02-18 08:16 41.60285 141.13268 30151 ft 507 kts 16°
2026-02-18 08:16 41.63592 141.14909 29251 ft 508 kts 17°
2026-02-18 08:16 41.66897 141.16551 28317 ft 508 kts 17°
2026-02-18 08:16 41.70208 141.18202 27422 ft 506 kts 17°
2026-02-18 08:17 41.73502 141.19858 26499 ft 506 kts 18°
2026-02-18 08:17 41.80076 141.23184 24913 ft 500 kts 18°
2026-02-18 08:17 41.83314 141.24824 24239 ft 496 kts 18°
2026-02-18 08:18 41.86523 141.26448 23561 ft 491 kts 18°
2026-02-18 08:18 41.89710 141.28063 22809 ft 487 kts 18°
2026-02-18 08:18 41.92858 141.29676 22080 ft 481 kts 19°
2026-02-18 08:18 41.95861 141.31608 21398 ft 477 kts 29°
2026-02-18 08:19 41.98606 141.34071 20749 ft 471 kts 38°
2026-02-18 08:19 42.01012 141.37015 20109 ft 465 kts 45°
2026-02-18 08:19 42.03303 141.40049 19459 ft 459 kts 45°
2026-02-18 08:19 42.05565 141.43039 18806 ft 454 kts 45°
2026-02-18 08:20 42.07827 141.45984 18159 ft 449 kts 44°
2026-02-18 08:20 42.10071 141.48871 17463 ft 444 kts 44°
2026-02-18 08:20 42.12295 141.51717 16809 ft 438 kts 43°
2026-02-18 08:20 42.14720 141.54102 16506 ft 426 kts 29°
2026-02-18 08:21 42.17297 141.56008 16228 ft 426 kts 27°
2026-02-18 08:21 42.22677 141.59840 15633 ft 439 kts 27°
2026-02-18 08:21 42.25313 141.61750 15340 ft 435 kts 27°
2026-02-18 08:22 42.27966 141.63700 15054 ft 433 kts 28°
2026-02-18 08:22 42.30604 141.65658 14768 ft 432 kts 28°
2026-02-18 08:22 42.33230 141.67618 14487 ft 430 kts 28°
2026-02-18 08:22 42.35842 141.69572 14209 ft 429 kts 28°
2026-02-18 08:23 42.38450 141.71525 13926 ft 428 kts 28°
2026-02-18 08:23 42.41045 141.73469 13795 ft 423 kts 28°
2026-02-18 08:23 42.43609 141.75391 13614 ft 422 kts 28°
2026-02-18 08:23 42.46181 141.77319 13327 ft 423 kts 28°
2026-02-18 08:24 42.48721 141.79226 13030 ft 412 kts 28°
2026-02-18 08:24 42.51198 141.81089 12575 ft 403 kts 28°
2026-02-18 08:24 42.53624 141.82915 12136 ft 395 kts 28°
2026-02-18 08:24 42.56005 141.84710 11686 ft 388 kts 28°
2026-02-18 08:25 42.58388 141.86223 11228 ft 370 kts 14°
2026-02-18 08:25 42.63324 141.86486 10635 ft 346 kts 353°
2026-02-18 08:25 42.65675 141.86224 10536 ft 332 kts 352°
2026-02-18 08:26 42.67937 141.85967 10442 ft 321 kts 352°
2026-02-18 08:26 42.70122 141.85731 10345 ft 310 kts 353°
2026-02-18 08:26 42.72254 141.85510 10110 ft 305 kts 353°
2026-02-18 08:26 42.74343 141.85301 9999 ft 296 kts 353°
2026-02-18 08:27 42.76377 141.85102 9850 ft 289 kts 353°
2026-02-18 08:27 42.78319 141.84916 9784 ft 270 kts 353°
2026-02-18 08:27 42.80139 141.84743 9647 ft 255 kts 353°
2026-02-18 08:27 42.81856 141.84578 9504 ft 240 kts 352°
2026-02-18 08:28 42.83481 141.84232 9139 ft 234 kts 343°
2026-02-18 08:28 42.85058 141.83712 8713 ft 233 kts 341°
2026-02-18 08:28 42.86611 141.83184 8299 ft 233 kts 342°
2026-02-18 08:28 42.88186 141.82660 7891 ft 233 kts 342°
2026-02-18 08:29 42.89757 141.82151 7588 ft 229 kts 343°
2026-02-18 08:29 42.92715 141.81210 7076 ft 212 kts 343°
2026-02-18 08:29 42.94173 141.80745 6568 ft 218 kts 343°
2026-02-18 08:30 42.95647 141.80189 6044 ft 221 kts 329°
2026-02-18 08:30 42.96813 141.78880 5534 ft 217 kts 299°
2026-02-18 08:30 42.97466 141.77073 5016 ft 211 kts 276°
2026-02-18 08:30 42.97587 141.75115 4512 ft 205 kts 257°
2026-02-18 08:31 42.97432 141.73182 4113 ft 204 kts 253°
2026-02-18 08:31 42.97251 141.71292 3839 ft 197 kts 252°
2026-02-18 08:31 42.97079 141.69470 3597 ft 190 kts 251°
2026-02-18 08:31 42.96646 141.67900 3390 ft 163 kts 222°
2026-02-18 08:32 42.95844 141.66969 3218 ft 144 kts 200°
2026-02-18 08:32 42.94935 141.66630 3061 ft 134 kts 174°
2026-02-18 08:32 42.93994 141.66695 2923 ft 138 kts 176°
2026-02-18 08:32 42.93030 141.66748 2746 ft 138 kts 174°
2026-02-18 08:33 42.92080 141.66868 2579 ft 136 kts 172°
2026-02-18 08:33 42.90302 141.67158 2310 ft 119 kts 171°
2026-02-18 08:33 42.89500 141.67297 2158 ft 116 kts 171°
2026-02-18 08:34 42.88962 141.67392 2092 ft 118 kts 170°
2026-02-18 08:34 42.88152 141.67536 1999 ft 118 kts 170°
2026-02-18 08:34 42.87338 141.67679 1836 ft 117 kts 170°
2026-02-18 08:34 42.86534 141.67821 1693 ft 117 kts 169°
2026-02-18 08:35 42.85726 141.67964 1519 ft 118 kts 169°
2026-02-18 08:35 42.84904 141.68110 1351 ft 121 kts 169°
2026-02-18 08:35 42.84048 141.68261 1152 ft 127 kts 169°
2026-02-18 08:35 42.83155 141.68419 954 ft 131 kts 168°
2026-02-18 08:36 42.82238 141.68581 768 ft 136 kts 169°
2026-02-18 08:36 42.81288 141.68748 589 ft 139 kts 168°
2026-02-18 08:36 42.80347 141.68909 496 ft 133 kts 169°
2026-02-18 08:36 42.79439 141.69066 303 ft 133 kts 168°
2026-02-18 08:37 42.78526 141.69209 108 ft 131 kts 168°
2026-02-18 08:37 42.77321 141.69460 69 ft 35 kts 174°
2026-02-18 08:37 42.77091 141.69489 65 ft 31 kts 172°
2026-02-18 08:38 42.76909 141.69516 68 ft 23 kts 181°
2026-02-18 08:38 42.76752 141.69474 60 ft 22 kts 199°
2026-02-18 08:38 42.76629 141.69393 64 ft 17 kts 225°
2026-02-18 08:38 42.76611 141.69330 67 ft 0 kts 259°
2026-02-18 08:39 42.76610 141.69322 66 ft 2 kts 260°
2026-02-18 08:39 42.76604 141.69264 63 ft 12 kts 263°
2026-02-18 08:39 42.76589 141.69116 66 ft 20 kts 263°
2026-02-18 08:40 42.76659 141.68970 65 ft 20 kts 343°
2026-02-18 08:40 42.76803 141.68941 68 ft 22 kts 352°
2026-02-18 08:40 42.76958 141.68913 66 ft 24 kts 353°
2026-02-18 08:40 42.77132 141.68884 75 ft 26 kts 352°
2026-02-18 08:41 42.77287 141.68854 72 ft 22 kts 352°
2026-02-18 08:41 42.77584 141.68805 83 ft 21 kts 352°
2026-02-18 08:41 42.77722 141.68780 85 ft 19 kts 352°
2026-02-18 08:42 42.77849 141.68758 85 ft 18 kts 352°
2026-02-18 08:42 42.77971 141.68735 86 ft 17 kts 351°
2026-02-18 08:42 42.78088 141.68713 84 ft 17 kts 355°
2026-02-18 08:42 42.78202 141.68695 87 ft 16 kts 352°
2026-02-18 08:43 42.78311 141.68676 87 ft 16 kts 353°
2026-02-18 08:43 42.78416 141.68659 89 ft 15 kts 354°
2026-02-18 08:43 42.78516 141.68641 88 ft 14 kts 352°
2026-02-18 08:43 42.78612 141.68623 91 ft 14 kts 352°
2026-02-18 08:44 42.78685 141.68595 91 ft 8 kts 307°
2026-02-18 08:44 42.78683 141.68543 88 ft 5 kts 241°
2026-02-18 08:44 42.78671 141.68487 87 ft 7 kts 276°
2026-02-18 08:44 42.78709 141.68428 85 ft 10 kts 339°
2026-02-18 08:45 42.78778 141.68387 87 ft 12 kts 315°
2026-02-18 08:45 42.78787 141.68287 86 ft 0 kts 263°
2026-02-18 08:45 42.78786 141.68284 86 ft 1 kts 263°
2026-02-18 08:46 42.78786 141.68278 86 ft 0 kts 263°